DW9516 Carolina PR US current weather conditions

sailwx.info

Wind from 009 at 9 knots gusting 16

Air temperature 25.6° C
Dewpoint 24.9° C

Last reported at 2020-Aug-10 18:01 UTC.
Time now 2020-Aug-10 18:20 UTC

Location: N 18°21' W 066°11'.
View on Google Maps.

See reports from other nearby stations

  
Tides and Currents Weather Stations Pressure Air Temp Water Temp Dewpoint Dewpoint Depression Visibility Wind Speed Wind Dir Waves Ship Positions
date/time (UTC)wind fromknots sea level pressurealtimeterstation pressurevisibilityair tempwater tempwave heightnotes
2020-Aug-10 18:01 009 9 gusting 16 25.6
2020-Aug-10 17:55 027 6 gusting 13 25.6
2020-Aug-10 17:50 320 8 gusting 13 25.6
2020-Aug-10 17:46 018 6 gusting 10 25.6
2020-Aug-10 17:40 007 4 gusting 9 25.6
2020-Aug-10 17:35 340 2 gusting 8 25.0
2020-Aug-10 17:31 008 1 gusting 13 25.0
2020-Aug-10 17:25 022 8 gusting 13 25.0
2020-Aug-10 17:20 021 4 gusting 7 25.6
2020-Aug-10 17:16 036 2 gusting 17 25.0
2020-Aug-10 17:10 035 8 gusting 17 26.1
2020-Aug-10 17:05 074 8 gusting 16 27.8
2020-Aug-10 17:01 352 8 gusting 16 28.9
2020-Aug-10 16:55 052 5 gusting 12 29.4
2020-Aug-10 16:50 004 6 gusting 11 29.4
2020-Aug-10 16:45 020 3 gusting 12 29.4
2020-Aug-10 16:40 036 6 gusting 10 29.4
2020-Aug-10 16:35 018 5 gusting 13 29.4
2020-Aug-10 16:31 024 6 gusting 13 28.9
2020-Aug-10 16:25 021 6 gusting 14 29.4
2020-Aug-10 16:20 022 6 gusting 15 29.4
2020-Aug-10 16:16 327 9 gusting 15 30.0
2020-Aug-10 16:10 027 6 gusting 13 30.0
2020-Aug-10 16:05 021 6 gusting 11 29.4
2020-Aug-10 16:00 035 6 gusting 14 28.9
2020-Aug-10 15:55 002 6 gusting 14 28.9
2020-Aug-10 15:50 159 6 gusting 11 30.0
2020-Aug-10 15:46 005 6 gusting 11 30.0
2020-Aug-10 15:40 026 5 gusting 9 30.0
2020-Aug-10 15:35 018 2 gusting 14 30.6
2020-Aug-10 15:31 238 5 gusting 14 31.1
2020-Aug-10 15:25 095 2 gusting 8 31.1
2020-Aug-10 15:20 008 3 gusting 8 30.6
2020-Aug-10 15:15 322 3 gusting 8 29.4
2020-Aug-10 15:10 025 4 gusting 13 28.9
2020-Aug-10 15:05 071 6 gusting 14 29.4
2020-Aug-10 15:01 341 6 gusting 12 30.0
2020-Aug-10 14:55 289 5 gusting 13 30.0
2020-Aug-10 14:50 023 6 gusting 12 30.6
2020-Aug-10 14:45 012 4 gusting 10 30.6
2020-Aug-10 14:40 134 2 gusting 14 30.6
2020-Aug-10 14:31 023 6 gusting 14 30.6
2020-Aug-10 14:25 021 5 gusting 16 30.6
2020-Aug-10 14:20 311 4 gusting 16 30.6
2020-Aug-10 14:10 024 4 gusting 11 30.6
2020-Aug-10 14:05 008 6 gusting 11 30.6
2020-Aug-10 14:00 064 5 gusting 13 30.6
2020-Aug-10 13:50 003 7 gusting 13 30.0
2020-Aug-10 13:40 039 4 gusting 9 29.4
2020-Aug-10 13:35 273 0 gusting 6 29.4
2020-Aug-10 13:30 030 3 gusting 8 29.4
2020-Aug-10 13:25 008 3 gusting 10 28.9
2020-Aug-10 13:20 033 6 gusting 11 29.4
2020-Aug-10 13:15 041 6 gusting 11 29.4
2020-Aug-10 13:10 081 2 gusting 9 29.4
2020-Aug-10 13:05 028 2 gusting 10 29.4
2020-Aug-10 13:00 045 5 gusting 9 29.4
2020-Aug-10 12:55 269 1 gusting 9 28.9
2020-Aug-10 12:50 233 1 gusting 7 28.9
2020-Aug-10 12:45 031 2 gusting 11 28.9
2020-Aug-10 12:40 236 6 gusting 13 28.3
2020-Aug-10 12:35 352 6 gusting 10 28.9
2020-Aug-10 12:30 262 2 gusting 11 28.9
2020-Aug-10 12:25 015 5 gusting 10 28.9
2020-Aug-10 12:20 235 1 gusting 7 28.9
2020-Aug-10 12:15 328 4 gusting 7 28.3
2020-Aug-10 12:10 230 1 gusting 4 28.9
2020-Aug-10 12:00 058 28.3
2020-Aug-10 11:55 030 1 gusting 5 27.8
2020-Aug-10 11:50 035 1 gusting 4 28.3
2020-Aug-10 11:40 032 0 gusting 3 27.8
2020-Aug-10 11:35 032 1 gusting 3 27.8
2020-Aug-10 11:25 108 27.8
2020-Aug-10 11:20 102 27.2
2020-Aug-10 11:10 117 26.7
2020-Aug-10 11:05 131 26.1
2020-Aug-10 10:55 144 25.6
2020-Aug-10 10:50 092 25.6
2020-Aug-10 10:45 103 25.0
2020-Aug-10 10:40 124 25.0
2020-Aug-10 10:35 093 24.4
2020-Aug-10 10:30 136 24.4
2020-Aug-10 10:25 108 24.4
2020-Aug-10 10:20 129 24.4
2020-Aug-10 10:10 141 24.4
2020-Aug-10 10:05 108 24.4
2020-Aug-10 10:00 128 24.4
2020-Aug-10 09:55 119 24.4
2020-Aug-10 09:50 152 24.4
2020-Aug-10 09:41 149 24.4
2020-Aug-10 09:35 134 24.4
2020-Aug-10 09:31 139 24.4
2020-Aug-10 09:25 116 0 gusting 1 24.4
2020-Aug-10 09:21 128 24.4
2020-Aug-10 09:16 148 24.4
2020-Aug-10 09:10 123 24.4
2020-Aug-10 09:05 153 24.4
2020-Aug-10 09:02 159 0 gusting 2 25.0
2020-Aug-10 08:55 117 25.0
2020-Aug-10 08:50 142 25.0
2020-Aug-10 08:46 146 25.0
2020-Aug-10 08:40 124 25.0
2020-Aug-10 08:35 160 25.0
2020-Aug-10 08:31 169 25.0
2020-Aug-10 08:25 169 25.0
2020-Aug-10 08:20 169 25.0
2020-Aug-10 08:17 169 25.0
2020-Aug-10 08:10 160 25.0
2020-Aug-10 08:05 134 25.0
2020-Aug-10 08:02 134 25.0
2020-Aug-10 07:55 125 25.0
2020-Aug-10 07:51 129 25.0
2020-Aug-10 07:46 123 25.0
2020-Aug-10 07:40 128 25.0
2020-Aug-10 07:35 120 25.0
2020-Aug-10 07:31 320 25.6
2020-Aug-10 07:25 320 25.6
2020-Aug-10 07:20 325 25.6
2020-Aug-10 07:16 029 25.6
2020-Aug-10 07:10 029 25.6
2020-Aug-10 07:05 033 0 gusting 3 25.6
2020-Aug-10 07:01 032 0 gusting 5 25.6
2020-Aug-10 06:55 078 2 gusting 5 25.6
2020-Aug-10 06:50 027 1 gusting 4 25.6
2020-Aug-10 06:46 023 1 gusting 4 25.6
2020-Aug-10 06:40 027 0 gusting 2 25.6
2020-Aug-10 06:35 053 25.6
2020-Aug-10 06:30 012 0 gusting 3 25.6
2020-Aug-10 06:25 044 1 gusting 2 25.6
2020-Aug-10 06:20 037 0 gusting 2 25.6
2020-Aug-10 06:16 025 0 gusting 2 26.1
2020-Aug-10 06:10 040 0 gusting 3 26.1
2020-Aug-10 06:05 037 1 gusting 3 26.1
2020-Aug-10 06:01 008 0 gusting 2 26.1
2020-Aug-10 05:55 021 26.1
2020-Aug-10 05:50 022 0 gusting 1 26.1
2020-Aug-10 05:45 022 26.1
2020-Aug-10 05:40 034 0 gusting 3 26.1
2020-Aug-10 05:35 039 1 gusting 3 26.1
2020-Aug-10 05:30 018 1 gusting 2 26.1
2020-Aug-10 05:25 033 0 gusting 2 26.1
2020-Aug-10 05:20 057 26.1
2020-Aug-10 05:15 054 25.6
2020-Aug-10 05:10 045 0 gusting 4 26.1
2020-Aug-10 05:05 013 0 gusting 4 26.1
2020-Aug-10 05:01 020 0 gusting 3 26.1
2020-Aug-10 04:55 046 26.1
2020-Aug-10 04:50 030 1 gusting 4 26.1
2020-Aug-10 04:45 023 1 gusting 5 26.1
2020-Aug-10 04:40 026 3 gusting 5 26.1
2020-Aug-10 04:35 049 2 gusting 6 26.1
2020-Aug-10 04:30 027 2 gusting 7 26.1
2020-Aug-10 04:25 299 4 gusting 7 26.1
2020-Aug-10 04:20 313 3 gusting 7 26.1
2020-Aug-10 04:15 058 3 gusting 7 26.1
2020-Aug-10 04:10 008 3 gusting 7 26.7
2020-Aug-10 04:00 229 4 gusting 9 26.7
2020-Aug-10 03:55 336 6 gusting 10 26.7
2020-Aug-10 03:50 150 6 gusting 10 26.7
2020-Aug-10 03:40 335 5 gusting 8 26.7
2020-Aug-10 03:35 042 1 gusting 9 26.7
2020-Aug-10 03:25 038 4 gusting 11 26.7
2020-Aug-10 03:15 027 2 gusting 9 27.2
2020-Aug-10 03:10 279 6 gusting 9 26.7
2020-Aug-10 03:05 029 4 gusting 9 26.7
2020-Aug-10 03:00 352 3 gusting 6 26.7
2020-Aug-10 02:55 046 1 gusting 6 26.7
2020-Aug-10 02:50 015 2 gusting 8 26.7
2020-Aug-10 02:41 018 3 gusting 7 26.7
2020-Aug-10 02:36 068 3 gusting 7 26.7
2020-Aug-10 02:31 051 3 gusting 8 26.7
2020-Aug-10 02:26 333 2 gusting 8 26.7
2020-Aug-10 02:20 038 3 gusting 8 26.7
2020-Aug-10 02:17 324 3 gusting 8 26.7
2020-Aug-10 02:11 352 4 gusting 10 26.7
2020-Aug-10 02:06 033 4 gusting 10 26.7
2020-Aug-10 02:01 062 4 gusting 9 26.7
2020-Aug-10 01:55 356 5 gusting 10 26.7
2020-Aug-10 01:50 037 3 gusting 12 26.7
2020-Aug-10 01:46 146 6 gusting 12 26.7
2020-Aug-10 01:40 037 5 gusting 13 27.2
2020-Aug-10 01:35 027 6 gusting 13 27.8
2020-Aug-10 01:31 025 6 gusting 12 27.8
2020-Aug-10 01:25 023 6 gusting 12 27.8
2020-Aug-10 01:20 008 4 gusting 11 27.8
2020-Aug-10 01:16 068 6 gusting 11 27.8
2020-Aug-10 01:10 297 5 gusting 11 27.8
2020-Aug-10 01:06 276 6 gusting 13 27.8
2020-Aug-10 01:01 242 6 gusting 13 27.8
2020-Aug-10 00:55 245 5 gusting 16 27.8
2020-Aug-10 00:50 338 8 gusting 16 27.8
2020-Aug-10 00:48 303 5 gusting 13 27.8
2020-Aug-10 00:40 345 5 gusting 13 27.8
2020-Aug-10 00:35 304 4 gusting 12 27.8
2020-Aug-10 00:32 352 5 gusting 13 27.8
2020-Aug-10 00:26 355 8 gusting 13 27.8
2020-Aug-10 00:20 008 6 gusting 13 27.8
2020-Aug-10 00:16 255 5 gusting 12 27.8
2020-Aug-10 00:11 278 4 gusting 11 27.8
2020-Aug-10 00:05 037 2 gusting 11 27.8
2020-Aug-10 00:01 005 4 gusting 13 27.8
2020-Aug-09 23:55 008 9 gusting 14 27.8
2020-Aug-09 23:51 039 4 gusting 11 28.3
2020-Aug-09 23:46 333 3 gusting 8 28.3
2020-Aug-09 23:40 309 2 gusting 8 28.3
2020-Aug-09 23:35 042 4 gusting 8 28.3
2020-Aug-09 23:31 288 4 gusting 7 28.3
2020-Aug-09 23:26 313 3 gusting 9 28.3
2020-Aug-09 23:20 062 4 gusting 10 28.3
2020-Aug-09 23:17 307 5 gusting 10 28.3
2020-Aug-09 23:10 042 3 gusting 16 28.3
2020-Aug-09 23:06 234 8 gusting 16 28.3
2020-Aug-09 23:01 305 5 gusting 11 28.3
2020-Aug-09 22:55 131 5 gusting 12 28.3
2020-Aug-09 22:50 243 5 gusting 12 28.9
2020-Aug-09 22:46 338 4 gusting 10 28.9
2020-Aug-09 22:40 007 5 gusting 11 28.9
2020-Aug-09 22:35 022 6 gusting 13 28.9
2020-Aug-09 22:30 267 6 gusting 15 28.9
2020-Aug-09 22:25 034 8 gusting 15 28.9
2020-Aug-09 22:20 338 7 gusting 13 29.4
2020-Aug-09 22:16 316 5 gusting 11 29.4
2020-Aug-09 22:10 059 6 gusting 13 29.4
2020-Aug-09 22:05 006 8 gusting 15 29.4
2020-Aug-09 22:01 053 6 gusting 14 29.4
2020-Aug-09 21:55 011 4 gusting 13 29.4
2020-Aug-09 21:50 282 8 gusting 13 30.0
2020-Aug-09 21:46 088 5 gusting 13 30.0
2020-Aug-09 21:40 006 7 gusting 16 30.0
2020-Aug-09 21:35 027 8 gusting 16 30.0
2020-Aug-09 21:30 029 7 gusting 14 30.0
2020-Aug-09 21:25 264 6 gusting 16 30.0
2020-Aug-09 21:21 020 6 gusting 16 30.0
2020-Aug-09 21:15 318 2 gusting 15 30.6
2020-Aug-09 21:10 133 4 gusting 14 30.6
2020-Aug-09 21:05 008 6 gusting 14 30.6
2020-Aug-09 21:01 154 5 gusting 14 30.6
2020-Aug-09 20:55 109 6 gusting 14 30.0
2020-Aug-09 20:50 348 6 gusting 13 30.6
2020-Aug-09 20:46 047 7 gusting 13 30.6
2020-Aug-09 20:40 035 6 gusting 13 30.6
2020-Aug-09 20:35 313 7 gusting 15 30.6
2020-Aug-09 20:32 023 6 gusting 15 30.6
2020-Aug-09 20:25 321 6 gusting 14 30.6
2020-Aug-09 20:20 025 6 gusting 14 31.1
2020-Aug-09 20:16 017 3 gusting 12 31.1
2020-Aug-09 20:11 313 6 gusting 13 30.6
2020-Aug-09 20:05 283 7 gusting 13 31.1
2020-Aug-09 20:01 236 5 gusting 13 31.1
2020-Aug-09 19:55 225 6 gusting 13 31.1
2020-Aug-09 19:51 064 3 gusting 14 31.1
2020-Aug-09 19:46 316 6 gusting 14 31.1
2020-Aug-09 19:40 046 4 gusting 10 31.7
2020-Aug-09 19:35 340 4 gusting 13 31.7
2020-Aug-09 19:31 312 5 gusting 15 31.7
2020-Aug-09 19:25 101 6 gusting 15 31.1
2020-Aug-09 19:20 065 5 gusting 12 31.1
2020-Aug-09 19:16 313 4 gusting 12 31.7
2020-Aug-09 19:10 043 3 gusting 12 31.7
2020-Aug-09 19:05 331 6 gusting 13 31.1
2020-Aug-09 19:01 312 4 gusting 14 31.7
2020-Aug-09 18:55 297 6 gusting 14 31.7
2020-Aug-09 18:50 020 6 gusting 14 31.1
2020-Aug-09 18:45 294 6 gusting 16 31.1
2020-Aug-09 18:40 031 9 gusting 16 31.7
2020-Aug-09 18:35 169 9 gusting 17 31.7
2020-Aug-09 18:31 032 11 gusting 17 31.7
2020-Aug-09 18:25 073 6 gusting 16 31.7
2020-Aug-09 18:20 293 6 gusting 17 31.7
2020-Aug-09 18:15 266 8 gusting 17 32.2
2020-Aug-09 18:10 059 4 gusting 14 32.2
2020-Aug-09 18:05 015 8 gusting 14 31.7
2020-Aug-09 18:00 282 8 gusting 14 31.7
2020-Aug-09 17:55 046 9 gusting 15 32.2
2020-Aug-09 17:50 025 8 gusting 15 32.2
2020-Aug-09 17:46 308 7 gusting 18 31.7
2020-Aug-09 17:40 319 7 gusting 18 31.7
2020-Aug-09 17:35 059 7 gusting 15 32.2
2020-Aug-09 17:30 268 6 gusting 15 31.7
2020-Aug-09 17:25 120 6 gusting 16 31.7
2020-Aug-09 17:20 303 8 gusting 16 31.1
2020-Aug-09 17:16 044 6 gusting 13 31.7
2020-Aug-09 17:10 004 7 gusting 15 32.2
2020-Aug-09 17:05 300 5 gusting 15 31.7
2020-Aug-09 17:01 023 5 gusting 15 31.7
2020-Aug-09 16:55 160 6 gusting 17 31.7
2020-Aug-09 16:50 165 7 gusting 17 31.7
2020-Aug-09 16:45 358 8 gusting 14 31.7
2020-Aug-09 16:40 088 6 gusting 16 31.7
2020-Aug-09 16:35 060 9 gusting 16 32.2
2020-Aug-09 16:30 015 6 gusting 15 32.2
2020-Aug-09 16:25 328 8 gusting 17 31.7
2020-Aug-09 16:20 293 8 gusting 17 31.7
2020-Aug-09 16:16 019 7 gusting 13 31.7
2020-Aug-09 16:10 311 6 gusting 15 31.7
2020-Aug-09 16:05 277 8 gusting 15 31.7
2020-Aug-09 16:00 249 6 gusting 17 31.7
2020-Aug-09 15:55 307 6 gusting 17 31.7
2020-Aug-09 15:50 148 8 gusting 15 31.7
2020-Aug-09 15:46 304 5 gusting 15 31.7
2020-Aug-09 15:40 124 6 gusting 12 31.7
2020-Aug-09 15:35 008 6 gusting 15 31.1
2020-Aug-09 15:30 068 5 gusting 16 31.1
2020-Aug-09 15:25 331 6 gusting 15 31.1
2020-Aug-09 15:20 345 6 gusting 16 31.1
2020-Aug-09 15:15 278 5 gusting 12 31.1
2020-Aug-09 15:10 128 3 gusting 13 31.1
2020-Aug-09 15:00 245 4 gusting 8 31.1
2020-Aug-09 14:50 009 6 gusting 13 31.1
2020-Aug-09 14:45 329 6 gusting 12 31.1
2020-Aug-09 14:40 051 4 gusting 12 31.1
2020-Aug-09 14:35 285 3 gusting 9 31.1
2020-Aug-09 14:25 025 3 gusting 15 30.6
2020-Aug-09 14:20 023 6 gusting 15 30.6
2020-Aug-09 14:10 025 5 gusting 14 30.6
2020-Aug-09 14:00 039 6 gusting 17 30.6
2020-Aug-09 13:55 047 6 gusting 13 30.6
2020-Aug-09 13:50 105 6 gusting 14 30.0
2020-Aug-09 13:36 317 5 gusting 13 30.0
2020-Aug-09 13:31 045 4 gusting 14 30.0
2020-Aug-09 13:25 044 6 gusting 14 30.0
2020-Aug-09 13:20 036 6 gusting 11 30.0
2020-Aug-09 13:16 336 3 gusting 12 29.4
2020-Aug-09 13:10 033 5 gusting 13 29.4
2020-Aug-09 13:06 056 5 gusting 13 29.4
2020-Aug-09 13:02 326 4 gusting 14 29.4
2020-Aug-09 12:56 032 6 gusting 14 29.4
2020-Aug-09 12:51 328 5 gusting 13 28.9
2020-Aug-09 12:46 351 6 gusting 13 28.9
2020-Aug-09 12:40 013 5 gusting 14 28.9
2020-Aug-09 12:36 337 7 gusting 14 28.3
2020-Aug-09 12:31 018 3 gusting 8 28.3
2020-Aug-09 12:25 008 4 gusting 11 28.3
2020-Aug-09 12:20 024 7 gusting 11 27.8
2020-Aug-09 12:17 009 4 gusting 11 27.8
2020-Aug-09 12:10 039 4 gusting 10 28.3
2020-Aug-09 12:05 011 2 gusting 8 28.3
2020-Aug-09 12:01 330 3 gusting 11 27.8
2020-Aug-09 11:55 017 5 gusting 11 27.8
2020-Aug-09 11:50 259 5 gusting 11 27.8
2020-Aug-09 11:46 025 0 gusting 6 27.8
2020-Aug-09 11:40 262 2 gusting 7 27.8
2020-Aug-09 11:35 347 3 gusting 7 27.2
2020-Aug-09 11:31 023 3 gusting 7 27.2
2020-Aug-09 11:25 011 3 gusting 7 27.2
2020-Aug-09 11:20 018 1 gusting 5 27.2
2020-Aug-09 11:16 270 1 gusting 6 26.7
2020-Aug-09 11:10 338 3 gusting 7 26.7
2020-Aug-09 11:05 027 4 gusting 7 26.7
2020-Aug-09 11:00 344 4 gusting 6 26.7
2020-Aug-09 10:56 043 3 gusting 6 26.1
2020-Aug-09 10:50 020 3 gusting 7 26.1
2020-Aug-09 10:46 040 4 gusting 7 26.1
2020-Aug-09 10:40 030 2 gusting 6 26.1
2020-Aug-09 10:35 337 3 gusting 6 26.1
2020-Aug-09 10:31 026 3 gusting 6 26.1
2020-Aug-09 10:25 003 3 gusting 6 26.1
2020-Aug-09 10:20 033 3 gusting 6 26.1
2020-Aug-09 10:16 310 2 gusting 7 26.1
2020-Aug-09 10:10 068 3 gusting 9 26.1
2020-Aug-09 10:05 072 3 gusting 7 25.6
2020-Aug-09 10:01 019 5 gusting 8 25.6
2020-Aug-09 09:55 347 5 gusting 7 25.6
2020-Aug-09 09:50 358 4 gusting 7 25.6
2020-Aug-09 09:46 021 3 gusting 7 25.6
2020-Aug-09 09:40 069 4 gusting 7 25.6
2020-Aug-09 09:35 062 3 gusting 6 25.6
2020-Aug-09 09:31 029 3 gusting 6 25.6
2020-Aug-09 09:25 025 3 gusting 6 25.6
2020-Aug-09 09:20 062 3 gusting 6 25.6
2020-Aug-09 09:15 342 3 gusting 6 25.6
2020-Aug-09 09:10 060 3 gusting 6 25.6
2020-Aug-09 09:05 022 2 gusting 6 25.6
2020-Aug-09 09:01 046 2 gusting 5 25.6
2020-Aug-09 08:55 018 2 gusting 5 25.6
2020-Aug-09 08:50 022 0 gusting 5 25.6
2020-Aug-09 08:46 017 2 gusting 5 25.6
2020-Aug-09 08:41 011 0 gusting 5 25.6
2020-Aug-09 08:35 044 0 gusting 6 25.6
2020-Aug-09 08:31 029 3 gusting 6 25.6
2020-Aug-09 08:25 309 1 gusting 6 26.1
2020-Aug-09 08:20 038 3 gusting 5 26.1
2020-Aug-09 08:16 032 1 gusting 6 26.1
2020-Aug-09 08:10 039 2 gusting 6 26.1
2020-Aug-09 08:05 033 3 gusting 7 26.1
2020-Aug-09 08:00 050 4 gusting 7 25.6
2020-Aug-09 07:55 351 1 gusting 7 25.6
2020-Aug-09 07:50 234 2 gusting 7 25.6
2020-Aug-09 07:46 337 3 gusting 6 25.6
2020-Aug-09 07:40 344 3 gusting 6 25.6
2020-Aug-09 07:35 006 2 gusting 6 26.1
2020-Aug-09 07:31 069 2 gusting 6 26.1
2020-Aug-09 07:25 046 1 gusting 6 26.1
2020-Aug-09 07:20 004 1 gusting 6 26.1
2020-Aug-09 07:16 282 2 gusting 5 26.1
2020-Aug-09 07:10 287 2 gusting 4 26.1
2020-Aug-09 07:05 018 1 gusting 5 26.1
2020-Aug-09 07:00 043 1 gusting 5 26.1
2020-Aug-09 06:55 044 1 gusting 5 26.1
2020-Aug-09 06:50 322 1 gusting 6 26.1
2020-Aug-09 06:45 360 2 gusting 6 26.1
2020-Aug-09 06:40 029 2 gusting 4 26.1
2020-Aug-09 06:35 037 2 gusting 4 26.1
2020-Aug-09 06:30 045 1 gusting 3 26.1
2020-Aug-09 06:25 010 26.1
2020-Aug-09 06:20 046 1 gusting 3 26.1
2020-Aug-09 06:15 026 1 gusting 3 26.1
2020-Aug-09 06:10 029 26.1
2020-Aug-09 06:05 047 26.1
2020-Aug-09 06:00 047 26.1
2020-Aug-09 05:55 026 26.1
2020-Aug-09 05:50 023 0 gusting 3 26.1
2020-Aug-09 05:45 035 26.1
2020-Aug-09 05:40 033 0 gusting 2 26.1
2020-Aug-09 05:30 027 0 gusting 3 26.1
2020-Aug-09 05:25 034 1 gusting 3 26.1
2020-Aug-09 05:20 029 0 gusting 4 26.1
2020-Aug-09 05:15 032 1 gusting 4 26.7
2020-Aug-09 05:10 046 1 gusting 5 26.7
2020-Aug-09 05:05 023 2 gusting 5 26.7
2020-Aug-09 04:55 355 1 gusting 5 26.7
2020-Aug-09 04:45 013 2 gusting 4 26.7
2020-Aug-09 04:40 352 2 gusting 5 26.7
2020-Aug-09 04:35 020 2 gusting 5 26.7
2020-Aug-09 04:30 345 2 gusting 6 26.7
2020-Aug-09 04:25 037 3 gusting 6 26.7
2020-Aug-09 04:20 002 1 gusting 5 26.7
2020-Aug-09 04:15 026 2 gusting 6 26.7
2020-Aug-09 04:06 347 2 gusting 6 26.7
2020-Aug-09 04:02 030 3 gusting 6 26.7
2020-Aug-09 03:55 034 1 gusting 6 26.7
2020-Aug-09 03:51 326 0 gusting 6 26.7
2020-Aug-09 03:46 226 2 gusting 9 26.7
2020-Aug-09 03:40 029 5 gusting 7 26.7
2020-Aug-09 03:36 354 2 gusting 6 26.7
2020-Aug-09 03:32 084 3 gusting 6 26.7
2020-Aug-09 03:25 022 2 gusting 11 26.7
2020-Aug-09 03:20 356 2 gusting 11 26.7
2020-Aug-09 03:16 018 4 gusting 8 26.7
2020-Aug-09 03:10 053 3 gusting 8 26.7
2020-Aug-09 03:05 013 3 gusting 6 26.7
2020-Aug-09 03:01 034 3 gusting 7 27.2
2020-Aug-09 02:55 017 5 gusting 7 27.2
2020-Aug-09 02:51 006 5 gusting 8 27.2
2020-Aug-09 02:46 347 4 gusting 7 27.2
2020-Aug-09 02:40 027 3 gusting 7 27.2
2020-Aug-09 02:36 347 4 gusting 8 27.2
2020-Aug-09 02:31 013 5 gusting 7 27.2
2020-Aug-09 02:26 043 5 gusting 9 27.2
2020-Aug-09 02:20 240 3 gusting 11 27.2
2020-Aug-09 02:17 039 5 gusting 11 27.2
2020-Aug-09 02:10 049 6 gusting 9 27.2
2020-Aug-09 02:05 041 5 gusting 9 27.2
2020-Aug-09 02:02 243 5 gusting 11 27.2
2020-Aug-09 01:56 331 6 gusting 11 27.2
2020-Aug-09 01:50 091 4 gusting 11 27.2
2020-Aug-09 01:46 041 5 gusting 10 27.2
2020-Aug-09 01:40 032 4 gusting 11 27.2
2020-Aug-09 01:35 023 4 gusting 12 27.2
2020-Aug-09 01:31 034 6 gusting 14 27.2
2020-Aug-09 01:25 293 5 gusting 14 27.8
2020-Aug-09 01:21 191 5 gusting 13 27.8
2020-Aug-09 01:17 338 6 gusting 15 27.8
2020-Aug-09 01:11 025 8 gusting 15 27.8
2020-Aug-09 01:05 099 7 gusting 16 27.8
2020-Aug-09 01:01 056 6 gusting 15 27.8
2020-Aug-09 00:55 034 6 gusting 12 27.8
2020-Aug-09 00:50 302 6 gusting 12 27.8
2020-Aug-09 00:46 053 7 gusting 13 27.8
2020-Aug-09 00:41 307 6 gusting 13 27.8
2020-Aug-09 00:35 065 5 gusting 14 27.8
2020-Aug-09 00:31 109 9 gusting 17 27.8
2020-Aug-09 00:25 333 9 gusting 18 27.8
2020-Aug-09 00:20 314 11 gusting 18 28.3
2020-Aug-09 00:16 349 7 gusting 18 28.3
2020-Aug-09 00:10 326 8 gusting 18 28.3
2020-Aug-09 00:05 293 8 gusting 18 28.3
2020-Aug-09 00:01 047 9 gusting 18 28.3
2020-Aug-08 23:55 317 7 gusting 17 28.3
2020-Aug-08 23:50 073 7 gusting 15 28.3
2020-Aug-08 23:40 040 6 gusting 16 28.3
2020-Aug-08 23:35 001 6 gusting 16 28.3
2020-Aug-08 23:31 024 8 gusting 18 28.3
2020-Aug-08 23:25 040 11 gusting 18 28.3
2020-Aug-08 23:20 017 9 gusting 14 28.3
2020-Aug-08 23:17 313 6 gusting 14 28.3
2020-Aug-08 23:10 077 9 gusting 15 28.3
2020-Aug-08 23:05 055 6 gusting 15 28.3
2020-Aug-08 23:01 006 6 gusting 15 28.3
2020-Aug-08 22:55 034 6 gusting 17 28.3
2020-Aug-08 22:50 348 8 gusting 17 28.3
2020-Aug-08 22:45 034 7 gusting 15 28.9
2020-Aug-08 22:40 027 5 gusting 18 28.3
2020-Aug-08 22:35 335 10 gusting 18 28.3
2020-Aug-08 22:31 006 9 gusting 16 28.9
2020-Aug-08 22:25 280 7 gusting 17 28.9
2020-Aug-08 22:21 003 10 gusting 16 28.9
2020-Aug-08 22:17 009 8 gusting 19 28.9
2020-Aug-08 22:10 297 9 gusting 19 28.9
2020-Aug-08 22:05 342 8 gusting 17 28.9
2020-Aug-08 22:01 059 7 gusting 14 28.9
2020-Aug-08 21:55 290 7 gusting 15 29.4
2020-Aug-08 21:50 037 8 gusting 17 29.4
2020-Aug-08 21:47 058 6 gusting 17 29.4
2020-Aug-08 21:40 006 11 gusting 17 29.4
2020-Aug-08 21:35 021 8 gusting 16 29.4
2020-Aug-08 21:30 301 5 gusting 13 29.4
2020-Aug-08 21:25 329 6 gusting 15 29.4
2020-Aug-08 21:20 274 7 gusting 15 29.4
2020-Aug-08 21:16 119 5 gusting 15 29.4
2020-Aug-08 21:10 089 7 gusting 14 30.0
2020-Aug-08 21:05 105 6 gusting 14 30.0
2020-Aug-08 21:01 346 7 gusting 18 30.0
2020-Aug-08 20:55 136 8 gusting 18 30.0
2020-Aug-08 20:51 118 6 gusting 14 30.6
2020-Aug-08 20:46 013 7 gusting 19 30.6
2020-Aug-08 20:40 007 8 gusting 19 30.6
2020-Aug-08 20:35 304 6 gusting 19 30.6
2020-Aug-08 20:31 034 6 gusting 23 30.6
2020-Aug-08 20:25 043 7 gusting 14 30.6
2020-Aug-08 20:20 269 7 gusting 15 31.1
2020-Aug-08 20:16 213 6 gusting 19 31.1
2020-Aug-08 20:10 011 10 gusting 19 31.1
2020-Aug-08 20:05 233 8 gusting 16 31.7
2020-Aug-08 20:00 354 6 gusting 15 31.7
2020-Aug-08 19:55 025 6 gusting 17 31.7
2020-Aug-08 19:50 088 8 gusting 18 31.7
2020-Aug-08 19:45 046 10 gusting 15 31.7
2020-Aug-08 19:40 054 7 gusting 18 31.1
2020-Aug-08 19:35 058 10 gusting 19 31.1
2020-Aug-08 19:30 068 10 gusting 19 31.1
2020-Aug-08 19:25 089 6 gusting 19 31.7
2020-Aug-08 19:20 009 12 gusting 19 31.7
2020-Aug-08 19:16 058 10 gusting 17 31.7
2020-Aug-08 19:10 011 8 gusting 18 31.7
2020-Aug-08 19:05 022 10 gusting 19 31.7
2020-Aug-08 19:01 011 11 gusting 19 31.7
2020-Aug-08 18:55 329 9 gusting 16 31.7
2020-Aug-08 18:50 027 10 gusting 16 32.2
2020-Aug-08 18:45 297 6 gusting 16 31.7
2020-Aug-08 18:40 353 9 gusting 22 31.7
2020-Aug-08 18:35 025 10 gusting 22 31.7
2020-Aug-08 18:31 293 6 gusting 17 32.2
2020-Aug-08 18:25 012 8 gusting 17 32.2
2020-Aug-08 18:20 019 6 gusting 19 32.2
2020-Aug-08 18:15 339 12 gusting 19 31.7
2020-Aug-08 18:10 146 8 gusting 19 32.2
2020-Aug-08 18:05 263 10 gusting 17 32.2
2020-Aug-08 18:02 039 5 gusting 15 32.2